Погода в Чигирях

Россия / Амурская область     50°20′20″N   127°30′27″E
темп.,
°C
ветер,
м/с
пор.,
м/с
влажн.,
%
обл.,
%
осадки,
мм/ч
давл.,
гПа
погр.,
м
23 октября, сб
сб2300:00+3з22715 0.0 101916
03:00+3зюз22735 0.0 101910
06:00+2зюз22765 0.0 101912
09:00+5зюз26655 0.0 1019175
12:00+10зсз35460 0.0 1018521
15:00+12з46450 0.0 1017835
18:00+6з35670 0.0 101861
21:00+5з33730 0.0 101940
24 октября, вс
вс2400:00+4зсз22735 0.0 101911
03:00+3зсз11765 0.0 101910
06:00+2з11795 0.0 101910
09:00+5з01680 0.0 101958
12:00+9ю22550 0.0 1018433
15:00+11ю23490 0.0 1017764
18:00+7ююз33640 0.0 101722
21:00+5зюз32680 0.0 101821
25 октября, пн
пн2500:00+4юз22710 0.0 101715
03:00+3ююз22710 0.0 101617
06:00+2ююз33700 0.0 101526
09:00+4ююз27650 0.0 1015185
12:00+10юз46440 0.0 1013685
15:00+12юз46410 0.0 10121014
18:00+7юз34605 0.0 101347
21:00+5юз33687 0.0 101326
26 октября, вт
вт2600:00+4юз227026 0.0 101221
03:00+3ююз2270100 0.0 101214
06:00+2ююз2272100 0.0 101217
09:00+4з1266100 0.0 101286
12:00+7сз2354100 0.0 1012469
15:00+8ссз3457100 0.0 1011728
18:00+5ссз227483 0.0 101226
21:00+3зсз22790 0.0 101212
27 октября, ср
ср2700:00+2з118198 0.0 101110
03:00+2ююз2278100 0.0 101010
06:00+2ю1278100 0.0 100913
09:00+3св2275100 0.0 1010113
12:00+5ссв4568100 0.0 1011588
15:00+6с5868100 0.0 10131111
18:00+3ссз4107898 0.0 1017251
21:00+2сз39845 0.0 1018186